Date String (YYYY-MM-DD hh:mm:ss) UTC,Instrument flags,absolute air pressure of the measurement (hPa),sample flow rate (lpm),inlet stack bypass flow (lpm),air temperature of the measurement (°C),ambient temperature measured by the external sensor (°C),aerosol sample conditioner tube jacket temperature (°C),OPC LED temperature (°C),internal box temperature (°C),relative humidity of the measurement (%),span deviation,mass concentration of particles derived from Lorenz-Mie calculation of OPC scattering (μg/m³),mass concentration of particles derived from Lorenz-Mie calculation of OPC scattering (μg/m³),mass concentration of particles derived from Lorenz-Mie calculation of OPC scattering (μg/m³)
DateTimeUTC,F1_M11,P_M11,Q1_M11,Q2_M11,T1_M11,T2_M11,T3_M11,T4_M11,T5_M11,U1_M11,ZSPAN_M11,X2_M11,X0_M11,X1_M11
2024-04-22 14:00:00,SystemResetWarning,0824.7,5.00,000.00,024.3,023.5,000.0,032.8,026.1,013.2,0000.0,0002.33,0005.25,0001.67
2024-04-22 14:01:00,SystemResetWarning,0824.6,5.00,000.00,024.3,023.5,000.0,032.8,026.1,013.1,0000.0,0002.36,0005.47,0001.67
2024-04-22 14:02:00,SystemResetWarning,0824.6,5.00,000.00,024.3,023.5,000.0,032.8,026.1,012.4,0000.0,0002.41,0005.64,0001.66
2024-04-22 14:03:00,SystemResetWarning,0824.7,5.00,000.00,024.3,023.5,000.0,032.8,026.1,014.7,0000.0,0002.48,0005.48,0001.67
2024-04-22 14:04:00,SystemResetWarning,0824.7,5.00,000.00,024.3,023.5,000.0,032.8,026.1,013.1,0000.0,0002.47,0004.92,0001.67
2024-04-22 14:05:00,SystemResetWarning,0824.7,5.00,000.00,024.3,023.5,000.0,032.8,026.1,012.5,0000.0,0002.51,0004.91,0001.66
2024-04-22 14:06:00,SystemResetWarning,0824.7,5.00,000.00,024.3,023.5,000.0,032.8,026.1,012.9,0000.0,0002.56,0004.99,0001.68
2024-04-22 14:07:00,SystemResetWarning,0824.7,4.99,000.00,024.3,023.5,000.0,032.8,026.2,013.9,0000.0,0002.62,0005.22,0001.69
2024-04-22 14:08:00,SystemResetWarning,0824.7,4.99,000.00,024.4,023.5,000.0,032.8,026.2,013.6,0000.0,0002.59,0005.46,0001.67
2024-04-22 14:09:00,SystemResetWarning,0824.6,5.00,000.00,024.4,023.6,000.0,032.8,026.2,013.9,0000.0,0002.54,0005.16,0001.65
2024-04-22 14:10:00,SystemResetWarning,0824.6,5.01,000.00,024.4,023.6,000.0,032.8,026.2,013.7,0000.0,0002.56,0005.37,0001.65
2024-04-22 14:11:00,SystemResetWarning,0824.7,5.00,000.00,024.4,023.6,000.0,032.8,026.2,013.3,0000.0,0002.56,0005.82,0001.66
2024-04-22 14:12:00,SystemResetWarning,0824.7,5.01,000.00,024.4,023.6,000.0,032.8,026.2,013.0,0000.0,0002.56,0006.61,0001.67
2024-04-22 14:13:00,SystemResetWarning,0824.8,5.00,000.00,024.4,023.6,000.0,032.8,026.3,013.0,0000.0,0002.55,0006.76,0001.69
2024-04-22 14:14:00,SystemResetWarning,0824.9,5.00,000.00,024.4,023.6,000.0,032.8,026.3,015.0,0000.0,0002.50,0007.18,0001.69
2024-04-22 14:15:00,SystemResetWarning,0824.7,5.00,000.00,024.4,023.6,000.0,032.9,026.3,013.4,0000.0,0002.55,0007.31,0001.69
2024-04-22 14:16:00,SystemResetWarning,0824.7,5.00,000.00,024.4,023.7,000.0,032.9,026.3,013.0,0000.0,0002.57,0007.46,0001.69
2024-04-22 14:17:00,SystemResetWarning,0824.7,5.00,000.00,024.5,023.7,000.0,032.9,026.3,013.8,0000.0,0002.51,0007.42,0001.68
2024-04-22 14:18:00,SystemResetWarning,0824.7,4.99,000.00,024.5,023.7,000.0,032.9,026.3,015.4,0000.0,0002.54,0007.47,0001.68
2024-04-22 14:19:00,SystemResetWarning,0824.8,5.00,000.00,024.5,023.7,000.0,032.9,026.3,015.7,0000.0,0002.55,0007.07,0001.69
2024-04-22 14:20:00,SystemResetWarning,0824.9,5.00,000.00,024.5,023.7,000.0,032.9,026.3,016.1,0000.0,0002.56,0008.12,0001.70
2024-04-22 14:21:00,SystemResetWarning,0824.9,4.99,000.00,024.5,023.7,000.0,032.9,026.3,016.8,0000.0,0002.57,0008.41,0001.70
2024-04-22 14:22:00,SystemResetWarning,0825.0,5.00,000.00,024.5,023.7,000.0,032.9,026.4,014.9,0000.0,0002.58,0008.25,0001.71
2024-04-22 14:23:00,SystemResetWarning,0825.1,5.00,000.00,024.5,023.7,000.0,032.9,026.4,016.7,0000.0,0002.62,0007.70,0001.70
2024-04-22 14:24:00,SystemResetWarning,0825.1,5.00,000.00,024.5,023.7,000.0,032.9,026.4,016.8,0000.0,0002.63,0007.63,0001.71
2024-04-22 14:25:00,SystemResetWarning,0825.1,5.00,000.00,024.5,023.7,000.0,033.0,026.4,015.1,0000.0,0002.66,0007.36,0001.72
2024-04-22 14:26:00,SystemResetWarning,0825.1,5.00,000.00,024.6,023.8,000.0,033.0,026.4,014.4,0000.0,0002.67,0007.34,0001.71
2024-04-22 14:27:00,SystemResetWarning,0825.1,5.00,000.00,024.6,023.8,000.0,033.0,026.4,014.7,0000.0,0002.61,0007.14,0001.72
2024-04-22 14:28:00,SystemResetWarning,0825.0,4.99,000.00,024.6,023.8,000.0,033.0,026.4,014.5,0000.0,0002.64,0007.28,0001.72
2024-04-22 14:29:00,SystemResetWarning,0824.9,5.00,000.00,024.6,023.8,000.0,033.0,026.4,015.0,0000.0,0002.63,0007.48,0001.73
2024-04-22 14:30:00,SystemResetWarning,0824.9,5.02,000.00,024.6,023.8,000.0,033.0,026.4,013.8,0000.0,0002.66,0007.51,0001.74
2024-04-22 14:31:00,SystemResetWarning,0824.9,5.00,000.00,024.6,023.8,000.0,033.0,026.4,013.9,0000.0,0002.66,0006.33,0001.74
2024-04-22 14:32:00,SystemResetWarning,0824.9,5.00,000.00,024.6,023.8,000.0,033.0,026.4,013.4,0000.0,0002.63,0005.62,0001.74
2024-04-22 14:33:00,SystemResetWarning,0824.9,5.00,000.00,024.6,023.8,000.0,033.0,026.4,012.7,0000.0,0002.64,0006.07,0001.74
2024-04-22 14:34:00,SystemResetWarning,0824.9,4.99,000.00,024.6,023.8,000.0,033.0,026.5,013.0,0000.0,0002.66,0006.04,0001.75
2024-04-22 14:35:00,SystemResetWarning,0824.9,5.00,000.00,024.6,023.8,000.0,033.0,026.5,015.4,0000.0,0002.68,0006.15,0001.75
2024-04-22 14:36:00,SystemResetWarning,0824.8,5.00,000.00,024.7,023.9,000.0,033.0,026.5,015.0,0000.0,0002.66,0006.17,0001.73
2024-04-22 14:37:00,SystemResetWarning,0824.7,5.01,000.00,024.7,023.9,000.0,033.1,026.5,014.1,0000.0,0002.65,0006.11,0001.73
2024-04-22 14:38:00,SystemResetWarning,0824.7,5.01,000.00,024.7,023.9,000.0,033.1,026.5,013.7,0000.0,0002.64,0006.11,0001.73
2024-04-22 14:39:00,SystemResetWarning,0824.7,5.01,000.00,024.7,023.9,000.0,033.1,026.5,014.3,0000.0,0002.65,0005.99,0001.74
2024-04-22 14:40:00,SystemResetWarning,0824.7,5.00,000.00,024.7,023.9,000.0,033.1,026.5,015.0,0000.0,0002.70,0005.57,0001.74
2024-04-22 14:41:00,SystemResetWarning,0824.7,4.99,000.00,024.7,023.9,000.0,033.1,026.6,015.5,0000.0,0002.70,0006.07,0001.73
2024-04-22 14:42:00,SystemResetWarning,0824.7,4.99,000.00,024.7,024.0,000.0,033.1,026.6,016.6,0000.0,0002.76,0007.68,0001.74
2024-04-22 14:43:00,SystemResetWarning,0824.7,5.00,000.00,024.8,024.0,000.0,033.1,026.6,016.4,0000.0,0002.79,0007.75,0001.75
2024-04-22 14:44:00,SystemResetWarning,0824.7,5.00,000.00,024.8,024.0,000.0,033.1,026.6,016.2,0000.0,0002.76,0007.39,0001.74
2024-04-22 14:45:00,SystemResetWarning,0824.7,4.99,000.00,024.8,024.0,000.0,033.2,026.6,016.2,0000.0,0002.78,0007.95,0001.75
2024-04-22 14:46:00,SystemResetWarning,0824.7,5.01,000.00,024.8,024.0,000.0,033.2,026.6,016.1,0000.0,0002.71,0008.42,0001.74
2024-04-22 14:47:00,SystemResetWarning,0824.7,5.00,000.00,024.8,024.0,000.0,033.2,026.6,015.8,0000.0,0002.67,0008.79,0001.74
2024-04-22 14:48:00,SystemResetWarning,0824.6,5.00,000.00,024.8,024.0,000.0,033.2,026.6,015.9,0000.0,0002.66,0008.81,0001.76
2024-04-22 14:49:00,SystemResetWarning,0824.5,5.00,000.00,024.8,024.1,000.0,033.2,026.6,014.9,0000.0,0002.70,0009.32,0001.77
2024-04-22 14:50:00,SystemResetWarning,0824.7,5.00,000.00,024.8,024.1,000.0,033.2,026.6,015.1,0000.0,0002.72,0010.32,0001.79
2024-04-22 14:51:00,SystemResetWarning,0824.6,5.00,000.00,024.9,024.1,000.0,033.2,026.7,015.2,0000.0,0002.71,0010.84,0001.79
2024-04-22 14:52:00,SystemResetWarning,0824.5,5.00,000.00,024.9,024.1,000.0,033.2,026.7,015.1,0000.0,0002.75,0011.55,0001.79
2024-04-22 14:53:00,SystemResetWarning,0824.5,5.00,000.00,024.9,024.1,000.0,033.3,026.7,015.3,0000.0,0002.77,0011.09,0001.80
2024-04-22 14:54:00,SystemResetWarning,0824.6,5.00,000.00,024.9,024.1,000.0,033.3,026.7,015.3,0000.0,0002.79,0010.92,0001.82
2024-04-22 14:55:00,SystemResetWarning,0824.6,5.00,000.00,024.9,024.1,000.0,033.3,026.7,015.1,0000.0,0002.82,0010.93,0001.83
2024-04-22 14:56:00,SystemResetWarning,0824.5,5.00,000.00,024.9,024.1,000.0,033.3,026.7,014.6,0000.0,0002.85,0010.62,0001.84
2024-04-22 14:57:00,SystemResetWarning,0824.4,5.00,000.00,024.9,024.1,000.0,033.3,026.7,014.5,0000.0,0002.85,0010.00,0001.86
2024-04-22 14:58:00,SystemResetWarning,0824.5,4.99,000.00,024.9,024.1,000.0,033.3,026.7,014.5,0000.0,0002.89,0009.55,0001.87
2024-04-22 14:59:00,SystemResetWarning,0824.5,4.99,000.00,025.0,024.2,000.0,033.3,026.8,015.4,0000.0,0002.92,0009.64,0001.86
